SPACEBEE-43 (47480 NORAD) Tracking and Keplerian Element Data

This shows tracking and keplerian element data for the satellite.

Feedback or suggestion? Click here.




ElementValue
Catalog47480
NameSPACEBEE-43
Epoch Orbit1261
Epoch Day106.08211015
Epoch Year2021
RAAN168.2534
Inclination97.4928
Eccentricity0.000581
Argument of Perigee338.0631
Mean Anonmoly22.035
Mean Motion15.1196602
Decay Rate1.983E-05
L11 47480U 21006BV 21106.08211015 .00001983 00000-0 11931-3 0 9999
L22 47480 97.4928 168.2534 0005810 338.0631 22.0350 15.11966020 12614

Live tracking and technical data element details for SPACEBEE-43 (NORAD 47480). SPACEBEE-43 can be tracked NOW for your location showing map with azimuth and elevation plus other details from your city location.

Track the satellite on the map from your city or location and see movement details for azimuth, elevation, latitude, longitude, range, height, and movement on the map or in text.







IsCatalogInMostPopularTable: catalog: 47480, numindb: 16
Update: records affected: 1



GetName: 47480 SPACEBEE-43

Hit Count: updated at: Fri, 16 Apr 2021 11:13:34 GMT